Volver al catálogo

STARLINK-36908

ActivoComunicacionesVLEO
NORAD 67945·PAYLOAD·🇺🇸 United States

Lanzado Feb 24, 2026 desde Vandenberg Space Force Base

Loading…

Próximos Pases (próximas 24 horas)

TLE

ActualizadoSource: CelesTrak SupGP

Época: Sep 15, 2026, 03:19 UTC

1 67945C 26037P   26258.13868056 -.00041758  00000+0 -15128-2 0  2582
2 67945  43.0012 200.5588 0001356 270.0539 225.0859 15.27592822    17

Sigue STARLINK-36908 en tiempo real con AllMySat

Download on the App Store